Вернуться в каталог

TURKSAT 4B

АктивенСвязьGEO
NORAD 40984·PAYLOAD·🇹🇷 Turkey

Запущен Oct 16, 2015 с Baikonur Cosmodrome

Loading…

TLE

СвежийSource: Space-Track

Эпоха: Sep 14, 2026, 14:02 UTC

1 40984U 15060A   26257.58506772  .00000107  00000-0  00000-0 0  9997
2 40984   0.0183 204.5001 0002028 330.5969  79.0781  1.00270686 39990

Отслеживайте TURKSAT 4B в реальном времени с AllMySat

Download on the App Store